Weather Roundup
Issued by NWS

Home | Current Version | Previous Version | Text Only | Print | Product List | Glossary On
Versions: 1 2 3 4 5 6 7 8 9 10 11 12 13 14 15 16 17 18 19 20 21 22 23 24 25 26 27 28 29 30 31 32 33 34 35 36 37 38 39 40 41 42 43 44 45 46 47 48 49 50
000
NZUS93 KARX 281110
HRRWXR

CURRENT HOURLY OBSERVATIONS ACROSS
MUCH OF THE UPPER MISSISSIPPI VALLEY
NATIONAL WEATHER SERVICE LA CROSSE WI
500 AM CST SUN DEC 28 2014


...SOUTHEAST MINNESOTA...


CITY           SKY/WX    TMP DP  RH WIND       PRES   REMARKS
ROCHESTER      CLEAR      7   3  84 SW10      30.08F WCI  -8
ROCHESTER/MAYO FAIR      13   8  83 SW6       30.09S WCI   3
WINONA         CLEAR     10   9  92 CALM      30.14S
AUSTIN         PTCLDY     7   3  85 S3        30.09S
ALBERT LEA     CLEAR      9   7  92 SW3       30.09S
DODGE CENTER   PTCLDY     7   5  92 SW6       30.06F WCI  -3
PRESTON        CLEAR      8   6  89 SW6       30.09F WCI  -2
OWATONNA       CLEAR      9   5  85 S5        30.08S WCI   0
FARIBAULT      PTCLDY     7   3  85 CALM      30.09S
$$

...ELSEWHERE IN MINNESOTA...


CITY           SKY/WX    TMP DP  RH WIND       PRES   REMARKS
MINNEAPOLIS    CLEAR     10   6  84 SW3       30.10S
INTNL FALLS    MOCLDY    -3  -8  79 NW9       30.09R WCI -19
DULUTH         FLURRIES  17   9  70 NW9       29.99R WCI   6
RED WING       CLOUDY     9   5  85 CALM      30.10S
REDWOOD FALLS  MOCLDY    12   8  84 SW7       30.08S WCI   1
MANKATO        MOCLDY     9   3  78 S6        30.08S WCI  -1
WORTHINGTON    CLEAR     10 -33  12 SW9       30.06F WCI  -2
FAIRMONT       CLEAR     10   5  79 SW5       30.08S WCI   2
$$

...SOUTHWEST WISCONSIN...


CITY           SKY/WX    TMP DP  RH WIND       PRES   REMARKS
LA CROSSE      CLEAR     13   8  81 S7        30.14S WCI   3
PRAIRIE DU CHI CLEAR     17  12  80 CALM      30.16S
BOSCOBEL       CLEAR     16  12  84 SW6       30.16R WCI   7
LONE ROCK      CLEAR     20  12  71 W7        30.15R WCI  11
PLATTEVILLE    CLEAR     16  14  89 CALM      30.14S
FORT MC COY    CLEAR     12   9  89 CALM      30.12S
CAMP DOUGLAS   CLEAR     12  12  99 CALM      30.10S
VIROQUA        FAIR      14  14  99 SW6       30.09R WCI   5
WIS DELLS      CLEAR     17  11  80 W8        30.09F WCI   6
$$

...ELSEWHERE IN WISCONSIN...


CITY           SKY/WX    TMP DP  RH WIND       PRES   REMARKS
MILWAUKEE      PTCLDY    25  18  74 W8        30.11R WCI  16
MADISON        CLEAR     19  13  77 CALM      30.12R
GREEN BAY      CLEAR     22  17  81 W7        30.07R WCI  13
EAU CLAIRE     CLOUDY    11   7  84 SW6       30.09S WCI   1
BLACK RVR FLS  FAIR       6   3  89 CALM      30.11S
MEDFORD        CLOUDY     9   7  92 W8        30.03R WCI  -4
WAUSAU         PTCLDY    10   6  84 NW5       30.04R WCI   2
WIS RAPIDS     CLEAR     14   8  77 W5        30.09S WCI   6
MARSHFIELD     PTCLDY     9   5  84 W8        30.06R WCI  -3
RICE LAKE      CLOUDY    13  10  85 S5        30.07S WCI   5
$$

...NORTHEAST IOWA...


CITY           SKY/WX    TMP DP  RH WIND       PRES   REMARKS
DECORAH        CLEAR     12  10  92 CALM      30.11S
MASON CITY     CLEAR      6   3  87 SW7       30.12F WCI  -6
CHARLES CITY   PTCLDY    10   7  85 S7        30.14S WCI   0
OELWEIN        CLEAR     14  10  85 CALM      30.15S
$$

...ELSEWHERE IN IOWA...


CITY           SKY/WX    TMP DP  RH WIND       PRES   REMARKS
DES MOINES     CLEAR     17  12  80 S3        30.18F
IOWA CITY      CLEAR     16  13  88 W5        30.20F WCI   9
FORT DODGE     CLEAR      9   5  85 CALM      30.13F
$$

...NORTHERN ILLINOIS...


CITY           SKY/WX    TMP DP  RH WIND       PRES   REMARKS
CHICAGO-OHARE  PTCLDY    24  18  77 W9        30.14R WCI  14
CHICAGO-MIDWAY PTCLDY    29  21  72 NW10      30.14R WCI  20
MOLINE         CLEAR     18  14  84 SW3       30.20S
ROCKFORD       CLEAR     20  15  81 W6        30.17R WCI  12
PEORIA         PTCLDY    24  18  77 NW5       30.21R WCI  18
$$

NOTE: "FAIR" INDICATES FEW OR NO CLOUDS BELOW 12,000 FEET WITH NO
SIGNIFICANT WEATHER AND/OR OBSTRUCTIONS TO VISIBILITY. WIND
SPEEDS ARE IN MILES-PER-HOUR.



USA.gov is the U.S. government's official web portal to all federal, state and local government web resources and services.